#timestamp,LO_Frequency,Hit,StdDev 
1551326415.3,286046999.1,N
1551326435.2,286047002.0,N
1551326455.9,286047002.4,N
1551326475.7,286046999.8,N
1551326495.6,286047002.3,N
1551326515.4,286047001.3,N
1551326535.2,286047003.6,N
1551326555.1,286046999.1,N
1551326556.0,286046999.1,N
1551326575.8,286046990.2,N
1551326595.7,286046994.0,N
1551326615.5,286046999.3,N
1551326635.3,286046999.9,N
1551326655.2,286047000.7,N
1551326675.0,286047000.6,N
1551326675.9,286047000.6,N
1551326695.7,286047006.4,N
1551326715.6,286047005.2,N
1551326735.4,286046999.9,N
1551326755.3,286046999.7,N
1551326775.1,286047005.2,N
1551326776.0,286047005.2,N
1551326795.8,286047014.8,N
1551326815.7,286047008.3,N
1551326835.5,286047007.3,N
1551326855.3,286047009.2,N
1551326875.2,286047007.0,N
1551326895.0,286046999.2,N
1551326895.9,286046999.2,N
1551326915.8,286046989.0,N
1551326935.6,286046991.4,N
1551326955.4,286046988.2,N
1551326975.3,286046984.7,N
1551326995.1,286046987.2,N
1551327015.9,286046980.1,N
1551327035.7,286046968.0,Y
1551327055.5,286046976.6,P
1551327075.4,286046972.2,N
1551327095.2,286046965.1,N
1551327115.0,286046959.7,Y
1551327116.0,286046959.7,P
1551327135.8,286046980.3,N
1551327155.6,286046991.6,N
1551327175.5,286046992.0,N
1551327195.3,286046990.9,N
1551327215.1,286046984.9,N
1551327235.9,286046987.2,N
1551327255.7,286046993.1,N
1551327275.5,286046990.1,N
1551327295.4,286046989.5,N
1551327315.2,286046996.1,N
1551327335.1,286047010.7,N
1551327336.0,286047010.7,N
1551327355.8,286047009.4,N
1551327375.6,286047018.6,N
1551327395.5,286047016.0,N
1551327415.3,286047018.5,N
1551327435.1,286047022.4,N
1551327455.9,286047017.9,N
1551327475.7,286047020.0,N
1551327495.6,286047019.8,N
1551327515.4,286047024.1,N
1551327535.2,286047019.3,N
1551327555.1,286047019.4,N
1551327556.0,286047019.4,N
1551327575.8,286047013.1,N
1551327595.6,286047015.9,N
1551327615.5,286047020.9,N
1551327635.3,286047020.6,N
1551327655.2,286047015.1,N
1551327675.9,286047015.2,N
1551327695.7,286047024.9,N
1551327715.6,286047031.7,N
1551327735.4,286047047.0,Y
1551327755.3,286047027.0,P
1551327775.1,286047020.0,N
1551327776.0,286047020.0,P
1551327795.8,286047016.6,N
1551327815.7,286047025.2,Y
1551327835.5,286047009.4,P
1551327855.3,286047009.8,N
1551327875.2,286047013.9,P
1551327895.0,286047011.4,N
1551327895.9,286047011.4,Y
1551327945.8,286047002.2,E
1551327955.7,286047000.8,N
1551327975.6,286047000.4,P
1551327995.4,286046998.4,P
1551328015.2,286046995.3,Y
1551328035.1,286046997.5,P
1551328036.0,286046997.5,N
1551328055.8,286047000.6,N
1551328075.6,286046996.6,N
1551328095.5,286046995.9,N
1551328115.3,286046989.1,Y
1551328135.2,286046983.9,P
1551328155.9,286046987.5,N
1551328175.7,286046995.6,N
1551328195.6,286046994.1,N
1551328215.4,286046999.7,N
1551328235.2,286046998.3,N
1551328255.1,286046999.4,N
1551328256.0,286046999.4,N
1551328275.8,286046994.2,N
1551328295.7,286046994.2,N
1551328315.5,286046991.7,N
1551328335.3,286046993.3,N
1551328355.2,286046998.5,N
1551328375.9,286047006.6,N
1551328395.7,286047002.3,N
1551328415.6,286046998.8,N
1551328435.4,286046994.5,N
1551328455.2,286046994.4,N
1551328475.1,286046990.4,N
1551328476.0,286046990.4,N
1551328495.8,286046987.3,N
1551328515.7,286046988.1,N
1551328535.5,286046977.7,Y
1551328555.4,286046987.4,P
1551328575.2,286046987.7,P
1551328595.0,286046982.2,P
1551328595.9,286046982.2,Y
1551328615.8,286046994.1,P
1551328635.6,286046991.0,N
1551328655.4,286046988.1,P
1551328675.3,286046990.2,Y
1551328695.1,286047012.3,P
1551328715.9,286047010.8,N
1551328735.7,286047003.0,N
1551328755.5,286047000.7,N
1551328775.4,286046997.3,N
1551328795.2,286046999.1,N
1551328815.0,286047005.9,N
1551328815.9,286047005.9,N
1551328835.8,286047005.1,N
1551328855.6,286047002.3,N
1551328875.5,286046998.7,N
1551328895.3,286046994.5,N
1551328915.1,286046997.0,N
1551328935.9,286046996.5,N
1551328955.7,286047000.3,N
1551328975.5,286046997.2,N
1551328995.4,286046995.4,N
1551329015.2,286046988.7,N
1551329035.1,286046991.8,N
1551329036.0,286046991.8,N
1551329055.8,286047000.1,N
1551329075.6,286047010.2,N
1551329095.5,286047003.1,N
1551329115.3,286047008.6,N
1551329135.1,286047010.2,N
1551329155.9,286047016.7,N
1551329175.7,286047013.4,N
1551329195.6,286047012.7,N
1551329215.4,286047021.0,N
1551329235.2,286047017.8,N
1551329255.1,286047018.3,N
1551329256.0,286047018.3,N
1551329275.8,286047016.0,N
1551329295.6,286047009.3,N
1551329315.5,286047018.1,N
1551329335.3,286047026.7,N
1551329355.2,286047020.8,N
1551329375.9,286047021.8,N
1551329395.7,286047021.0,N
1551329415.6,286047021.4,N
1551329435.4,286047021.1,N
1551329485.3,286047029.7,E
1551329495.2,286047015.4,N
1551329515.0,286046995.7,P
1551329515.9,286046995.7,N
1551329535.8,286046996.3,N
1551329555.6,286046993.5,N
1551329575.4,286046987.0,N
1551329595.3,286046985.9,N
1551329615.1,286046985.3,N
1551329635.9,286046992.0,N
1551329655.7,286046993.8,N
1551329675.5,286046996.1,N
1551329695.4,286047002.4,N
1551329715.2,286047002.1,N
1551329735.0,286047003.2,N
1551329735.9,286047003.2,N
1551329755.8,286047003.0,N
1551329775.6,286047000.4,N
1551329795.5,286047003.5,N
1551329815.3,286046998.0,N
1551329835.1,286046995.1,N
1551329855.9,286046993.7,N
1551329875.7,286047000.7,N
1551329895.5,286047000.1,N
1551329915.4,286047003.7,N
1551329935.2,286046998.6,N
1551329955.1,286047003.9,N
1551329956.0,286047003.9,N
1551329975.8,286047008.8,N
1551329995.6,286047010.8,N
